This is the latest recevied weather packets stored in our database for station/object IN3XSV. If no packets are shown the sender has not sent any weather packets the latest 10 day(s).
| Time | Temp. | Humidity | Pressure | Rain* | Wind** | Luminosity | Snow |
|---|---|---|---|---|---|---|---|
| 1777012748 | 8.89° C | 70% | 1013.3 hPa | 0 mm | - | - | - |
| 1777012448 | 8.33° C | 70% | 1013.2 hPa | 0 mm | - | - | - |
| 1777012149 | 8.33° C | 70% | 1013.4 hPa | 0 mm | - | - | - |
| 1777011848 | 8.33° C | 70% | 1013.3 hPa | 0 mm | - | - | - |
| 1777011548 | 8.33° C | 70% | 1013.4 hPa | 0 mm | - | - | - |
| 1777011249 | 8.33° C | 71% | 1013.4 hPa | 0 mm | - | - | - |
| 1777010949 | 8.33° C | 71% | 1013.4 hPa | 0 mm | - | - | - |
| 1777010649 | 7.78° C | 71% | 1013.5 hPa | 0 mm | - | - | - |
| 1777010348 | 7.78° C | 70% | 1013.4 hPa | 0 mm | - | - | - |
| 1777010048 | 7.78° C | 70% | 1013.5 hPa | 0 mm | - | - | - |
| 1777009748 | 7.22° C | 71% | 1013.4 hPa | 0 mm | - | - | - |
| 1777009448 | 7.22° C | 71% | 1013.3 hPa | 0 mm | - | - | - |
| 1777009149 | 6.67° C | 71% | 1013.3 hPa | 0 mm | - | - | - |
| 1777008849 | 6.67° C | 72% | 1013.2 hPa | 0 mm | - | - | - |
| 1777008549 | 6.67° C | 73% | 1013.3 hPa | 0 mm | - | - | - |
| 1777008249 | 5.56° C | 74% | 1013.1 hPa | 0 mm | - | - | - |
| 1777007949 | 5.56° C | 74% | 1013.2 hPa | 0 mm | - | - | - |
| 1777007649 | 5° C | 74% | 1013.2 hPa | 0 mm | - | - | - |
| 1777007349 | 5° C | 75% | 1013.1 hPa | 0 mm | - | - | - |
| 1777007049 | 4.44° C | 75% | 1013.1 hPa | 0 mm | - | - | - |
| 1777006749 | 4.44° C | 75% | 1013.2 hPa | 0 mm | - | - | - |
| 1777006449 | 4.44° C | 74% | 1013.1 hPa | 0 mm | - | - | - |
| 1777006149 | 4.44° C | 74% | 1013.1 hPa | 0 mm | - | - | - |
| 1777005849 | 3.89° C | 74% | 1013.2 hPa | 0 mm | - | - | - |
| 1777005549 | 3.89° C | 74% | 1013.1 hPa | 0 mm | - | - | - |
* Rain latest hour (hover to see other rain measurements)
** Current wind speed in m/s (hover to see current wind gust speed)